This is the latest recevied weather packets stored in our database for station/object EUGENE. If no packets are shown the sender has not sent any weather packets the latest 10 day(s).
| Time | Temp. | Humidity | Pressure | Rain* | Wind** | Luminosity | Snow |
|---|---|---|---|---|---|---|---|
| 1777873329 | 15.56° C | 76% | 1009.9 hPa | 0 mm | - | - | - |
| 1777872429 | 15.56° C | 75% | 1009.6 hPa | 0 mm | - | - | - |
| 1777871529 | 16.67° C | 73% | 1009.4 hPa | 0 mm | - | - | - |
| 1777870628 | 17.78° C | 71% | 1009.1 hPa | 0 mm | - | - | - |
| 1777869729 | 18.89° C | 69% | 1008.8 hPa | 0 mm | - | - | - |
| 1777868829 | 20° C | 66% | 1008.4 hPa | 0 mm | - | - | - |
| 1777867929 | 21.11° C | 65% | 1008.1 hPa | 0 mm | - | - | - |
| 1777867029 | 22.22° C | 66% | 1007.7 hPa | 0 mm | - | - | - |
| 1777866129 | 22.78° C | 66% | 1007.4 hPa | 0 mm | - | - | - |
| 1777865228 | 22.78° C | 70% | 1007.1 hPa | 0 mm | - | - | - |
| 1777864328 | 23.33° C | 69% | 1007 hPa | 0 mm | - | - | - |
| 1777863429 | 23.89° C | 66% | 1006.8 hPa | 0 mm | - | - | - |
| 1777862528 | 25° C | 63% | 1006.7 hPa | 0 mm | - | - | - |
| 1777861628 | 26.11° C | 60% | 1006.7 hPa | 0 mm | - | - | - |
| 1777860728 | 27.22° C | 55% | 1006.7 hPa | 0 mm | - | - | - |
| 1777859829 | 28.33° C | 52% | 1006.8 hPa | 0 mm | - | - | - |
| 1777858928 | 29.44° C | 52% | 1006.8 hPa | 0 mm | - | - | - |
| 1777858028 | 29.44° C | 50% | 1006.8 hPa | 0 mm | - | - | - |
| 1777857128 | 29.44° C | 53% | 1006.8 hPa | 0 mm | - | - | - |
| 1777856228 | 30° C | 49% | 1006.9 hPa | 0 mm | - | - | - |
| 1777855329 | 29.44° C | 44% | 1006.9 hPa | 0 mm | - | - | - |
| 1777854428 | 30° C | 50% | 1006.9 hPa | 0 mm | - | - | - |
| 1777853528 | 30.56° C | 49% | 1007 hPa | 0 mm | - | - | - |
| 1777852629 | 30° C | 49% | 1007 hPa | 0 mm | - | - | - |
| 1777851728 | 30° C | 49% | 1007 hPa | 0 mm | - | - | - |
* Rain latest hour (hover to see other rain measurements)
** Current wind speed in m/s (hover to see current wind gust speed)